When you browse on this site, cookies collect data to enhance your experience and personalize the content and advertising you see.
Visit our Privacy Policy to learn more. By continuing to use the site, you agree to this use of cookies and data.
  • In United Kingdom
  • List of Countries
  • For 7 days
  • Water Temperature
  • Weather Map
  • Weather Widgets
  • user-avatar
    Login

    Hourly Weather Hizan

    Today, 10 December, Tuesday

    Time Temperature Precipitation Wind Pressure Humidity
    00:00 +1°C° 0 mm 1 mps 626 mmHg 91%
    01:00 0°C° 0 mm 1 mps 626 mmHg 89%
    02:00 0°C° 0 mm 1 mps 625 mmHg 87%
    03:00 0°C° 0 mm 1 mps 625 mmHg 85%
    04:00 0°C° 0.1 mm 1 mps 625 mmHg 84%
    05:00 0°C° 0.1 mm 1 mps 625 mmHg 84%
    06:00 0°C° 0.1 mm 1 mps 625 mmHg 83%
    07:00 +1°C° 0 mm 1 mps 626 mmHg 80%
    08:00 +2°C° 0 mm 1 mps 626 mmHg 76%
    09:00 +2°C° 0 mm 1 mps 626 mmHg 72%
    10:00 +2°C° 0.1 mm 1 mps 626 mmHg 77%
    11:00 +2°C° 0.1 mm 1 mps 625 mmHg 82%
    12:00 +3°C° 0.1 mm 1 mps 625 mmHg 87%
    13:00 +3°C° 0.2 mm 1 mps 625 mmHg 88%
    14:00 +3°C° 0.2 mm 1 mps 625 mmHg 88%
    15:00 +3°C° 0.2 mm 1 mps 624 mmHg 89%
    16:00 +3°C° 0.2 mm 1 mps 625 mmHg 91%
    17:00 +1°C° 0.2 mm 0 mps 625 mmHg 94%
    18:00 +1°C° 0.2 mm 0 mps 625 mmHg 96%
    19:00 +1°C° 0.1 mm 0 mps 625 mmHg 95%
    20:00 +1°C° 0.1 mm 0 mps 625 mmHg 94%
    21:00 0°C° 0.1 mm 0 mps 625 mmHg 93%
    22:00 0°C° 0 mm 0 mps 625 mmHg 93%
    23:00 +1°C° 0 mm 1 mps 625 mmHg 92%

    Tomorrow, 11 December, Wednesday

    Time Temperature Precipitation Wind Pressure Humidity
    00:00 +1°C° 0 mm 1 mps 625 mmHg 92%
    01:00 0°C° 0 mm 0 mps 625 mmHg 91%
    02:00 -1°C° 0 mm 0 mps 625 mmHg 90%
    03:00 -1°C° 0 mm 0 mps 625 mmHg 89%
    04:00 -1°C° 0 mm 0 mps 625 mmHg 88%
    05:00 -2°C° 0 mm 0 mps 625 mmHg 88%
    06:00 -2°C° 0 mm 0 mps 625 mmHg 87%
    07:00 -1°C° 0 mm 0 mps 625 mmHg 83%
    08:00 0°C° 0 mm 0 mps 626 mmHg 79%
    09:00 +1°C° 0 mm 0 mps 626 mmHg 76%
    10:00 +2°C° 0 mm 1 mps 626 mmHg 74%
    11:00 +3°C° 0 mm 1 mps 626 mmHg 72%
    12:00 +4°C° 0 mm 1 mps 626 mmHg 71%
    13:00 +4°C° 0 mm 1 mps 626 mmHg 72%
    14:00 +4°C° 0 mm 1 mps 626 mmHg 74%
    15:00 +4°C° 0 mm 1 mps 625 mmHg 75%
    16:00 +3°C° 0 mm 1 mps 625 mmHg 80%
    17:00 +2°C° 0 mm 1 mps 625 mmHg 85%
    18:00 0°C° 0 mm 0 mps 625 mmHg 90%
    19:00 0°C° 0 mm 0 mps 625 mmHg 91%
    20:00 -1°C° 0 mm 0 mps 625 mmHg 91%
    21:00 -1°C° 0 mm 0 mps 625 mmHg 91%
    22:00 -1°C° 0 mm 0 mps 625 mmHg 89%
    23:00 0°C° 0 mm 1 mps 625 mmHg 87%

    Day after tomorrow, 12 December, Thursday

    Time Temperature Precipitation Wind Pressure Humidity
    00:00 0°C° 0 mm 1 mps 625 mmHg 85%
    01:00 -1°C° 0 mm 1 mps 625 mmHg 83%
    02:00 -1°C° 0 mm 1 mps 625 mmHg 82%
    03:00 -1°C° 0 mm 1 mps 625 mmHg 80%
    04:00 -1°C° 0 mm 1 mps 625 mmHg 77%
    05:00 -1°C° 0 mm 1 mps 624 mmHg 75%
    06:00 0°C° 0 mm 1 mps 624 mmHg 72%
    07:00 0°C° 0 mm 1 mps 625 mmHg 69%
    08:00 +1°C° 0 mm 1 mps 625 mmHg 65%
    09:00 +2°C° 0 mm 1 mps 625 mmHg 61%
    10:00 +3°C° 0 mm 1 mps 625 mmHg 60%
    11:00 +3°C° 0 mm 1 mps 625 mmHg 60%
    12:00 +4°C° 0 mm 1 mps 624 mmHg 59%
    13:00 +4°C° 0 mm 1 mps 624 mmHg 63%
    14:00 +4°C° 0 mm 1 mps 623 mmHg 66%
    15:00 +4°C° 0 mm 1 mps 623 mmHg 70%
    16:00 +3°C° 0 mm 1 mps 622 mmHg 73%
    17:00 +3°C° 0 mm 1 mps 622 mmHg 77%
    18:00 +2°C° 0 mm 1 mps 622 mmHg 80%
    19:00 +2°C° 0 mm 1 mps 622 mmHg 82%
    20:00 +1°C° 0 mm 0 mps 622 mmHg 85%
    21:00 +1°C° 0 mm 0 mps 621 mmHg 87%
    22:00 +1°C° 0.6 mm 0 mps 621 mmHg 90%
    23:00 +1°C° 0.6 mm 0 mps 621 mmHg 94%

    13 December, Friday

    Time Temperature Precipitation Wind Pressure Humidity
    00:00 +1°C° 0.6 mm 0 mps 621 mmHg 97%
    01:00 +1°C° 0.5 mm 0 mps 621 mmHg 97%
    02:00 +1°C° 0.5 mm 0 mps 620 mmHg 97%
    03:00 +1°C° 0.5 mm 0 mps 620 mmHg 97%
    04:00 +1°C° 0.1 mm 0 mps 620 mmHg 97%
    05:00 +1°C° 0.1 mm 1 mps 620 mmHg 96%
    06:00 +1°C° 0.1 mm 1 mps 620 mmHg 95%
    07:00 +2°C° 0 mm 1 mps 620 mmHg 95%
    08:00 +2°C° 0 mm 1 mps 620 mmHg 94%
    09:00 +1°C° 0 mm 0 mps 621 mmHg 93%
    10:00 +3°C° 0.1 mm 1 mps 621 mmHg 94%
    11:00 +3°C° 0.1 mm 1 mps 621 mmHg 94%
    12:00 +3°C° 0.1 mm 1 mps 621 mmHg 95%
    13:00 +3°C° 0.1 mm 1 mps 620 mmHg 95%
    14:00 +3°C° 0.1 mm 1 mps 620 mmHg 96%
    15:00 +3°C° 0.1 mm 1 mps 620 mmHg 97%
    16:00 +3°C° 0.1 mm 1 mps 621 mmHg 97%
    17:00 +3°C° 0.1 mm 1 mps 621 mmHg 97%
    18:00 +2°C° 0.1 mm 0 mps 621 mmHg 97%
    19:00 +1°C° 0 mm 0 mps 621 mmHg 97%
    20:00 +1°C° 0 mm 0 mps 622 mmHg 96%
    21:00 +1°C° 0 mm 0 mps 622 mmHg 96%
    22:00 +1°C° 0 mm 0 mps 622 mmHg 95%
    23:00 0°C° 0 mm 0 mps 622 mmHg 94%

    14 December, Saturday

    Time Temperature Precipitation Wind Pressure Humidity
    00:00 0°C° 0 mm 0 mps 622 mmHg 94%
    01:00 0°C° 0 mm 0 mps 622 mmHg 94%
    02:00 +1°C° 0 mm 1 mps 622 mmHg 94%
    03:00 +1°C° 0 mm 1 mps 623 mmHg 94%
    04:00 +1°C° 0 mm 1 mps 623 mmHg 93%
    05:00 +1°C° 0 mm 1 mps 623 mmHg 92%
    06:00 +1°C° 0 mm 1 mps 623 mmHg 91%
    07:00 +1°C° 0 mm 1 mps 623 mmHg 89%
    08:00 +2°C° 0 mm 1 mps 624 mmHg 87%
    09:00 +2°C° 0 mm 1 mps 624 mmHg 85%
    10:00 +2°C° 0 mm 1 mps 624 mmHg 87%
    11:00 +3°C° 0 mm 1 mps 624 mmHg 88%
    12:00 +2°C° 0 mm 2 mps 624 mmHg 90%
    13:00 +3°C° 0.1 mm 1 mps 624 mmHg 89%
    14:00 +3°C° 0.1 mm 1 mps 624 mmHg 88%
    15:00 +3°C° 0.1 mm 1 mps 624 mmHg 87%
    16:00 +3°C° 0 mm 1 mps 624 mmHg 89%
    17:00 +2°C° 0 mm 1 mps 624 mmHg 91%
    18:00 +1°C° 0 mm 1 mps 624 mmHg 93%
    19:00 +1°C° 0 mm 1 mps 624 mmHg 91%
    20:00 +1°C° 0 mm 1 mps 624 mmHg 90%
    21:00 +1°C° 0 mm 1 mps 624 mmHg 89%
    22:00 +1°C° 0.1 mm 1 mps 624 mmHg 90%
    23:00 +1°C° 0.1 mm 1 mps 624 mmHg 91%

    15 December, Sunday

    Time Temperature Precipitation Wind Pressure Humidity
    00:00 +1°C° 0.1 mm 1 mps 625 mmHg 93%
    01:00 +1°C° 0 mm 1 mps 624 mmHg 92%
    02:00 +1°C° 0 mm 1 mps 624 mmHg 92%
    03:00 +1°C° 0 mm 1 mps 624 mmHg 91%
    04:00 +1°C° 0.1 mm 1 mps 624 mmHg 92%
    05:00 +2°C° 0.1 mm 1 mps 624 mmHg 94%
    06:00 +2°C° 0.1 mm 1 mps 624 mmHg 95%
    07:00 +2°C° 0.1 mm 1 mps 625 mmHg 95%
    08:00 +2°C° 0.1 mm 1 mps 625 mmHg 95%
    09:00 +3°C° 0.1 mm 1 mps 625 mmHg 95%
    10:00 +3°C° 0.1 mm 1 mps 625 mmHg 96%
    11:00 +3°C° 0.1 mm 1 mps 625 mmHg 96%
    12:00 +4°C° 0.1 mm 1 mps 625 mmHg 96%
    13:00 +4°C° 0.2 mm 1 mps 625 mmHg 96%
    14:00 +4°C° 0.2 mm 1 mps 625 mmHg 97%
    15:00 +4°C° 0.2 mm 1 mps 625 mmHg 97%
    16:00 +3°C° 0.3 mm 1 mps 625 mmHg 97%
    17:00 +2°C° 0.3 mm 0 mps 625 mmHg 97%
    18:00 +2°C° 0.3 mm 0 mps 625 mmHg 98%
    19:00 +2°C° 0.1 mm 0 mps 626 mmHg 98%
    20:00 +2°C° 0.1 mm 0 mps 626 mmHg 97%
    21:00 +2°C° 0.1 mm 0 mps 626 mmHg 97%
    22:00 +2°C° 0 mm 0 mps 626 mmHg 96%
    23:00 +1°C° 0 mm 0 mps 626 mmHg 96%
    Show more